{"data":{"norad_id":53707,"epoch":"2026-09-20T04:16:42.873600Z","epoch_age_seconds":109083,"freshness":"FRESH","line1":"1 53707U 22107H   26263.17827400  .00007131  00000+0  22210-3 0  9993","line2":"2 53707  53.1597  62.8797 0001054  88.1828 271.9296 15.34383428224609","mean_motion":15.34383428,"eccentricity":0.0001054,"inclination_deg":53.1597,"raan_deg":62.8797,"arg_perigee_deg":88.1828,"mean_anomaly_deg":271.9296,"bstar":0.0002221,"rev_number":22460,"period_min":93.848771677427,"perigee_km":462.03146637392,"apogee_km":463.4735258797,"semimajor_km":6840.8894961268,"source":"CELESTRAK","updated_at":"2026-09-21T09:00:32.982989Z"}}